This is the latest recevied weather packets stored in our database for station/object KD8OZS. If no packets are shown the sender has not sent any weather packets the latest 10 day(s).
| Time | Temp. | Humidity | Pressure | Rain* | Wind** | Luminosity | Snow |
|---|---|---|---|---|---|---|---|
| 1787938229 | 24.44° C | 73% | 1014 hPa | 0 mm | - | 690 W/m² | - |
| 1787937928 | 24.44° C | 70% | 1014 hPa | 0 mm | - | 249 W/m² | - |
| 1787937624 | 24.44° C | 68% | 1014.2 hPa | 0 mm | - | 130 W/m² | - |
| 1787937320 | 24.44° C | 71% | 1014.1 hPa | 0 mm | - | 146 W/m² | - |
| 1787937016 | 23.89° C | 73% | 1013.9 hPa | 0 mm | - | 185 W/m² | - |
| 1787936715 | 23.33° C | 74% | 1014.1 hPa | 0 mm | - | 215 W/m² | - |
| 1787936410 | 23.89° C | 74% | 1014.1 hPa | 0 mm | - | 144 W/m² | - |
| 1787936109 | 23.89° C | 75% | 1014 hPa | 0 mm | - | 491 W/m² | - |
| 1787935805 | 23.89° C | 77% | 1014.1 hPa | 0 mm | - | 161 W/m² | - |
| 1787935501 | 23.33° C | 76% | 1014.1 hPa | 0 mm | - | 359 W/m² | - |
| 1787935196 | 22.78° C | 80% | 1014.1 hPa | 0 mm | - | 263 W/m² | - |
| 1787934892 | 23.33° C | 79% | 1014 hPa | 0 mm | - | 157 W/m² | - |
| 1787934591 | 23.33° C | 78% | 1013.9 hPa | 0 mm | - | 312 W/m² | - |
| 1787934286 | 23.33° C | 78% | 1013.8 hPa | 0 mm | - | 188 W/m² | - |
| 1787933985 | 23.33° C | 78% | 1013.9 hPa | 0 mm | - | 343 W/m² | - |
| 1787933684 | 23.33° C | 79% | 1014.2 hPa | 0 mm | - | 197 W/m² | - |
| 1787933380 | 22.78° C | 80% | 1014 hPa | 0 mm | - | 201 W/m² | - |
| 1787933074 | 23.33° C | 80% | 1014.1 hPa | 0 mm | - | 216 W/m² | - |
| 1787932772 | 23.33° C | 79% | 1013.8 hPa | 0 mm | - | 230 W/m² | - |
| 1787932467 | 22.78° C | 80% | 1014 hPa | 0 mm | - | 292 W/m² | - |
| 1787932163 | 22.78° C | 81% | 1013.9 hPa | 0 mm | - | 208 W/m² | - |
| 1787931861 | 23.33° C | 80% | 1013.8 hPa | 0 mm | - | 245 W/m² | - |
| 1787931556 | 22.78° C | 81% | 1013.8 hPa | 0 mm | - | 243 W/m² | - |
| 1787931251 | 22.78° C | 81% | 1013.9 hPa | 0 mm | - | 373 W/m² | - |
| 1787930950 | 22.22° C | 81% | 1013.7 hPa | 0 mm | - | 180 W/m² | - |
* Rain latest hour (hover to see other rain measurements)
** Current wind speed in m/s (hover to see current wind gust speed)